Other Surface Observations
Issued by NWS Tucson, AZ

Home | Current Version | Previous Version | Text Only | Print | Product List | Glossary On
Versions: 1 2 3 4 5 6 7 8 9 10 11 12 13 14 15 16 17 18 19 20 21 22 23 24 25 26 27 28 29 30 31 32 33 34 35 36 37 38 39 40 41 42 43 44 45 46 47 48 49 50
000
SXUS55 KTWC 190115
OSOTWC

WEATHER ROUNDUP FOR SOUTHEAST ARIZONA
NATIONAL WEATHER SERVICE TUCSON AZ
615 PM MST FRI APR 18 2014

AZZ504>506-514-190215-
LOCATION       SKY/WX    TMP DP  RH WIND       PRES   REMARKS
TUCSON         PTSUNNY   73  42  32 E17       29.93F
DAVIS-MONTHAN  PTSUNNY   73  41  31 E14       29.91F
CHILDRENS PARK N/A      N/A N/A N/A N/A               PIMA CO DEQ
ALVERNON/22ND  N/A       74 N/A N/A E10               PIMA CO DEQ
CHERRY/GLENN   N/A      N/A N/A N/A N/A               PIMA CO DEQ
TANGERINE      N/A       74 N/A N/A SE8               PIMA CO DEQ
CONTL RANCH    N/A       75  42  30 SE11              PIMA CO DEQ
GRANT/1ST      N/A       73  43  34 E11               PIMA CO DEQ
CRAYCROFT/22ND N/A       72  43  35 E9                PIMA CO DEQ
GOLFLINKS/KOLB N/A      N/A N/A N/A N/A               PIMA CO DEQ
AJO/12TH       N/A       73  43  34 E11               PIMA CO DEQ
SAGUARO EAST   N/A       72  43  35 NE6               PIMA CO DEQ
FAIRGROUNDS    N/A       68 N/A N/A E15               PIMA CO DEQ
SAGUARO        N/A       71  43  36 E10G20            *SABINO CYN
SAN CARLOS     N/A       67  41  38 NE4G12            *SAN CARLOS
GREEN VALLEY   N/A       72  42  34 E6                PIMA CO DEQ
HORSE CAMP CYN N/A       61  42  49 E9G18             *ARAVAIPA CYN
RINCON MTNS    N/A       43  37  79 E8G11             *NR MANNING CAMP
$$

AZZ509>511-190215-
LOCATION       SKY/WX    TMP DP  RH WIND       PRES   REMARKS
SAFFORD        CLOUDY    68  41  37 W12       30.00R
STRAY HORSE    N/A       46  28  49 W12G20            *
TRAIL CABIN    N/A       50  43  78 CALM              *N OF GRANVILLE
BLACK HILLS    N/A       64  45  50 SW7G12            *N OF FT THOMAS
DRY LAKE       N/A       42  39  89 N3                *NATANES MTNS
NOON CREEK     N/A       57  46  67 NE3               *PINALENO MTNS
COLUMBINE      N/A       39  36  88 SW4G11            *PINALENO MTNS
GUTHRIE        N/A       52  38  59 N15G25            *SW OF GUTHRIE
$$

AZZ502-503-513-190215-
LOCATION       SKY/WX    TMP DP  RH WIND       PRES   REMARKS
NOGALES        PTSUNNY   67  42  40 N7        29.96F
SELLS          N/A       79  32  18 S9G15             *
SASABE         N/A       76  34  22 SE4G10            *ALTAR VLY
HOPKINS        N/A       54  36  50 E7G14             *SANTA RITA MTNS
CARR CYN       N/A       56  46  68 NW2G10            *W OF HEREFORD
$$

AZZ507-508-512-190215-
LOCATION       SKY/WX    TMP DP  RH WIND       PRES   REMARKS
SIERRA VISTA   PTSUNNY   63  45  51 CALM      30.03F
DOUGLAS          N/A     57  51  80 MISG      30.03F
EMPIRE MTNS    N/A       59  46  61 NE5G13            *LAS CIENEGAS NCA
MULESHOE RANCH N/A       59  47  65 SE6G13            *PRESERVE
HEADQUARTERS   N/A       63  36  36 SE2G11            *CHIRICAHUA MTNS
$$

.............................NOTES.............................
THIS IS AN AUTOMATED COLLECTIVE WITH MINIMAL QUALITY CONTROL.
PIMA CO DEQ SITES HAVE NONSTANDARD WIND SENSOR HEIGHTS.
PIMA CO DEQ SITES DO NOT REPORT WIND GUSTS.
* INDICATES WIND SENSORS LOCATED AT 20 FEET INSTEAD OF 33 FEET.
..............................KEY..............................
SKY/WX - SKY CONDITION/WEATHER
TMP    - TEMPERATURE IN FAHRENHEIT
DP     - DEWPOINT IN FAHRENHEIT
RH     - RELATIVE HUMIDITY IN PERCENT
WIND   - DIRECTION AND SPEED IN MILES PER HOUR (MPH)
VRB    - VARIABLE WIND DIRECTION
PRES   - MEAN SEA LEVEL PRESSURE IN INCHES OF MERCURY
         F - FALLING PRESSURE   R - RISING PRESSURE
         S - STEADY PRESSURE
VSB    - VISIBILITY IN MILES
HX     - HEAT INDEX IN FAHRENHEIT
WCI    - WIND CHILL INDEX IN FAHRENHEIT
N/A    - NOT AVAILABLE
AFB    - AIR FORCE BASE
         DAVIS-MONTHAN IS DAVIS-MONTHAN AIR FORCE BASE
CYN    - CANYON
MTNS   - MOUNTAINS
NCA    - NATIONAL CONSERVATION AREA
NR     - NEAR
VLY    - VALLEY
CONTL  - CONTINENTAL
PIMA CO DEQ - PIMA COUNTY DEPT OF ENVIRONMENTAL QUALITY



USA.gov is the U.S. government's official web portal to all federal, state and local government web resources and services.